Location: Baia Mare
(47.6567°N, 23.5850°E)
Time: 13:47:36
(UTC+03:00)

ISS - Pass Details

Date: 26 July 2019
Orbit: 409 x 418 km, 51.6° (Epoch: 21 July)

Event Time Altitude Azimuth Distance (km) Brightness Sun altitude
Rises 22:19:54 0° 284° (WNW) 2,356 1.2 -10.3°
Reaches altitude 10° 22:22:05 10° 292° (WNW) 1,491 0.2 -10.6°
Maximum altitude 22:25:16 40° 4° (N) 626 -2.5 -11.0°
Drops below altitude 10° 22:28:27 10° 76° (ENE) 1,485 -1.3 -11.4°
Enters shadow 22:29:23 - 80° (E) 1,854 -0.8 -11.5°
